Date String (YYYY-MM-DD hh:mm:ss) UTC,Instrument flags,Ambient pressure (hPa),Sample flow (lpm),Bypass flow (lpm),Sample temperature (°C),Ambient temperature (°C),ASC tube jacket temperature (°C),LED temperature (°C),Box temperature (°C),Sample RH (%),Span deviation,Mass concentration (μg/m³),Mass concentration (μg/m³),Mass concentration (μg/m³)
DateTimeUTC,F1_M11,P_M11,Q1_M11,Q2_M11,T1_M11,T2_M11,T3_M11,T4_M11,T5_M11,U1_M11,ZSPAN_M11,X0_M11,X2_M11,X1_M11
2021-12-27 07:00:00,,0816.0,5.01,0.00,22.0,22.9,00.0,30.7,23.9,11.2,0000.0,0001.58,0000.57,0000.33
2021-12-27 07:01:00,,0815.9,5.00,0.00,22.0,22.5,00.0,30.7,23.8,11.2,0000.0,0001.59,0000.57,0000.33
2021-12-27 07:02:00,,0815.9,4.99,0.00,21.9,22.2,00.0,30.7,23.7,11.2,0000.0,0001.63,0000.59,0000.32
2021-12-27 07:03:00,,0815.9,5.02,0.00,21.9,22.0,00.0,30.7,23.6,11.2,0000.0,0001.59,0000.59,0000.32
2021-12-27 07:04:00,,0815.9,4.99,0.00,21.9,21.8,00.0,30.7,23.5,11.2,0000.0,0001.53,0000.58,0000.32
2021-12-27 07:05:00,,0815.9,5.00,0.00,21.9,21.6,00.0,30.7,23.4,11.2,0000.0,0001.93,0000.58,0000.32
2021-12-27 07:06:00,,0815.9,4.99,0.00,21.8,21.5,00.0,30.7,23.4,11.2,0000.0,0002.64,0000.62,0000.32
2021-12-27 07:07:00,,0815.9,5.01,0.00,21.8,21.3,00.0,30.7,23.4,11.3,0000.0,0002.63,0000.61,0000.31
2021-12-27 07:08:00,,0815.9,4.99,0.00,21.8,21.2,00.0,30.7,23.3,11.3,0000.0,0002.56,0000.57,0000.31
2021-12-27 07:09:00,,0815.8,5.01,0.00,21.7,21.1,00.0,30.7,23.3,11.3,0000.0,0002.60,0000.60,0000.30
2021-12-27 07:10:00,,0815.9,5.00,0.00,21.7,21.1,00.0,30.7,23.2,11.4,0000.0,0002.40,0000.60,0000.30
2021-12-27 07:11:00,,0815.9,5.00,0.00,21.7,21.0,00.0,30.7,23.2,11.4,0000.0,0002.40,0000.61,0000.31
2021-12-27 07:12:00,,0815.9,4.99,0.00,21.7,21.0,00.0,30.7,23.2,11.4,0000.0,0002.32,0000.59,0000.31
2021-12-27 07:13:00,,0815.9,5.00,0.00,21.6,20.9,00.0,30.7,23.2,11.4,0000.0,0002.38,0000.58,0000.30
2021-12-27 07:14:00,,0815.9,4.99,0.00,21.6,20.8,00.0,30.7,23.1,11.5,0000.0,0003.74,0000.61,0000.30
2021-12-27 07:15:00,,0815.9,5.01,0.00,21.6,20.8,00.0,30.7,23.1,11.5,0000.0,0005.49,0000.62,0000.30
2021-12-27 07:16:00,,0815.9,5.01,0.00,21.6,20.8,00.0,30.7,23.1,11.5,0000.0,0005.23,0000.60,0000.30
2021-12-27 07:17:00,,0815.9,4.99,0.00,21.6,21.2,00.0,30.7,23.2,11.5,0000.0,0004.45,0000.61,0000.31
2021-12-27 07:18:00,,0815.9,4.99,0.00,21.7,22.0,00.0,30.7,23.5,11.4,0000.0,0004.29,0000.60,0000.31
2021-12-27 07:19:00,,0815.9,5.01,0.00,21.9,22.8,00.0,30.8,23.8,11.3,0000.0,0004.37,0000.62,0000.31
2021-12-27 07:20:00,,0815.9,5.00,0.00,22.0,22.7,00.0,30.8,23.9,11.2,0000.0,0004.45,0000.64,0000.31
2021-12-27 07:21:00,,0816.0,5.00,0.00,22.0,22.4,00.0,30.8,23.8,11.2,0000.0,0004.42,0000.64,0000.31
2021-12-27 07:22:00,,0815.9,4.99,0.00,22.0,22.2,00.0,30.8,23.7,11.2,0000.0,0004.52,0000.69,0000.30
2021-12-27 07:23:00,,0815.9,5.01,0.00,21.9,21.9,00.0,30.8,23.6,11.2,0000.0,0004.51,0000.68,0000.30
2021-12-27 07:24:00,,0816.0,4.99,0.00,21.9,21.7,00.0,30.8,23.6,11.2,0000.0,0004.48,0000.70,0000.30
2021-12-27 07:25:00,,0815.9,5.01,0.00,21.9,21.6,00.0,30.8,23.5,11.2,0000.0,0003.38,0000.68,0000.29
2021-12-27 07:26:00,,0815.9,5.00,0.00,21.9,21.4,00.0,30.8,23.5,11.2,0000.0,0001.44,0000.66,0000.28
2021-12-27 07:27:00,,0816.0,5.01,0.00,21.8,21.3,00.0,30.8,23.4,11.3,0000.0,0001.41,0000.65,0000.27
2021-12-27 07:28:00,,0815.9,5.00,0.00,21.8,21.2,00.0,30.8,23.3,11.3,0000.0,0001.32,0000.61,0000.27
2021-12-27 07:29:00,,0815.9,5.00,0.00,21.8,21.1,00.0,30.8,23.3,11.2,0000.0,0001.26,0000.59,0000.26
2021-12-27 07:30:00,,0816.0,5.01,0.00,21.7,21.1,00.0,30.8,23.3,11.3,0000.0,0001.23,0000.59,0000.26
2021-12-27 07:31:00,,0816.0,5.01,0.00,21.7,21.0,00.0,30.8,23.3,11.4,0000.0,0001.11,0000.54,0000.25
2021-12-27 07:32:00,,0816.0,4.99,0.00,21.7,20.9,00.0,30.8,23.2,11.4,0000.0,0001.05,0000.50,0000.25
2021-12-27 07:33:00,,0816.0,5.01,0.00,21.7,20.9,00.0,30.8,23.2,11.4,0000.0,0000.95,0000.45,0000.24
2021-12-27 07:34:00,,0816.0,4.99,0.00,21.6,20.9,00.0,30.7,23.1,11.5,0000.0,0000.99,0000.46,0000.25
2021-12-27 07:35:00,,0816.0,5.02,0.00,21.6,21.1,00.0,30.7,23.2,11.5,0000.0,0001.00,0000.43,0000.25
2021-12-27 07:36:00,,0816.0,5.00,0.00,21.8,22.0,00.0,30.8,23.5,11.5,0000.0,0001.06,0000.41,0000.24
2021-12-27 07:37:00,,0816.1,5.00,0.00,21.9,22.8,00.0,30.8,23.9,11.4,0000.0,0000.91,0000.39,0000.24
2021-12-27 07:38:00,,0816.0,5.01,0.00,22.0,22.8,00.0,30.9,24.0,11.3,0000.0,0000.94,0000.40,0000.24
2021-12-27 07:39:00,,0816.0,4.99,0.00,22.0,22.5,00.0,30.9,23.9,11.3,0000.0,0000.94,0000.39,0000.24
2021-12-27 07:40:00,,0816.0,4.99,0.00,22.0,22.3,00.0,30.9,23.8,11.3,0000.0,0000.90,0000.38,0000.25
2021-12-27 07:41:00,,0816.0,5.01,0.00,22.0,22.0,00.0,30.9,23.7,11.3,0000.0,0000.82,0000.36,0000.25
2021-12-27 07:42:00,,0816.0,5.00,0.00,22.0,21.8,00.0,30.9,23.6,11.2,0000.0,0001.05,0000.37,0000.25
2021-12-27 07:43:00,,0816.0,5.01,0.00,22.0,21.6,00.0,30.9,23.6,11.2,0000.0,0001.21,0000.39,0000.25
2021-12-27 07:44:00,,0816.0,4.99,0.00,21.9,21.5,00.0,30.9,23.5,11.2,0000.0,0001.37,0000.41,0000.26
2021-12-27 07:45:00,,0816.1,5.00,0.00,21.9,21.4,00.0,30.9,23.5,11.2,0000.0,0002.39,0000.44,0000.26
2021-12-27 07:46:00,,0816.0,5.00,0.00,21.9,21.3,00.0,30.9,23.4,11.2,0000.0,0002.53,0000.44,0000.27
2021-12-27 07:47:00,,0816.0,5.01,0.00,21.9,21.2,00.0,30.9,23.4,11.2,0000.0,0003.69,0000.45,0000.27
2021-12-27 07:48:00,,0816.0,4.99,0.00,21.8,21.1,00.0,30.9,23.4,11.3,0000.0,0004.40,0000.52,0000.27
2021-12-27 07:49:00,,0816.0,5.02,0.00,21.8,21.1,00.0,30.9,23.3,11.3,0000.0,0004.48,0000.55,0000.28
2021-12-27 07:50:00,,0816.0,5.00,0.00,21.8,21.0,00.0,30.9,23.3,11.2,0000.0,0004.54,0000.57,0000.29
2021-12-27 07:51:00,,0815.9,4.99,0.00,21.7,21.0,00.0,30.8,23.3,11.3,0000.0,0004.76,0000.59,0000.29
2021-12-27 07:52:00,,0816.0,5.01,0.00,21.7,21.0,00.0,30.8,23.3,11.3,0000.0,0004.81,0000.61,0000.30
2021-12-27 07:53:00,,0815.9,4.99,0.00,21.7,21.0,00.0,30.8,23.2,11.2,0000.0,0005.06,0000.62,0000.30
2021-12-27 07:54:00,,0815.9,5.01,0.00,21.7,21.1,00.0,30.8,23.3,11.2,0000.0,0004.98,0000.63,0000.31
2021-12-27 07:55:00,,0815.9,4.99,0.00,21.8,21.8,00.0,30.9,23.6,11.2,0000.0,0004.96,0000.63,0000.31
2021-12-27 07:56:00,,0815.9,5.00,0.00,22.0,22.7,00.0,30.9,23.9,11.1,0000.0,0004.01,0000.60,0000.31
2021-12-27 07:57:00,,0815.9,4.99,0.00,22.1,22.8,00.0,30.9,24.0,11.0,0000.0,0003.88,0000.63,0000.32
2021-12-27 07:58:00,,0815.9,5.01,0.00,22.1,22.6,00.0,30.9,24.0,10.9,0000.0,0002.53,0000.66,0000.31
2021-12-27 07:59:00,,0815.9,5.00,0.00,22.1,22.3,00.0,31.0,23.9,10.9,0000.0,0001.96,0000.61,0000.31
